Regional Weather Roundup
Issued by NWS

Home | Current Version | Previous Version | Graphics & Text | Print | Product List | Glossary On
Versions: 1 2 3 4 5 6 7 8 9 10 11 12 13 14 15 16 17 18 19 20 21 22 23 24 25 26 27 28 29 30 31 32 33 34 35 36 37 38 39 40 41 42 43 44 45 46 47 48 49 50
030
ASUS45 KBOU 261807
RWRCO

WEATHER ROUNDUP FOR COLORADO
NATIONAL WEATHER SERVICE DENVER/BOULDER CO
1200 PM MDT MON JUN 26 2017

NOTE: "FAIR" INDICATES FEW OR NO CLOUDS BELOW 12000 FEET WITH NO
SIGNIFICANT WEATHER AND/OR OBSTRUCTIONS TO VISIBILITY.

COZ001>005-013-030-031-261900-
...NORTHWEST COLORADO...

CITY           SKY/WX    TMP DP  RH WIND       PRES   REMARKS
CRAIG          FAIR      84  28  13 NE9       30.26F
HAYDEN         FAIR      79  30  17 E6        30.29F
MEEKER         FAIR      83  26  12 VRB5      30.27F
RABBIT EARS PA FAIR      61  32  33 CALM      30.58F
STEAMBOAT SPGS FAIR      75  38  26 NW3       30.31F
WALDEN         FAIR      70  27  19 N7        30.42F
$$

COZ006>008-011-261900-
...WEST CENTRAL VALLEYS...

CITY           SKY/WX    TMP DP  RH WIND       PRES   REMARKS
GRAND JUNCTION FAIR      90  29  11 SE6       30.14F
MONTROSE       FAIR      87  36  16 VRB5      30.22F
EAGLE          SUNNY     75  32  20 CALM      30.32F
RIFLE          FAIR      85  28  12 N6        30.21F
DELTA          FAIR      89  28  11 CALM      30.19F
NUCLA          FAIR      88  27  11 W5        30.27F
$$

COZ017>023-064>068-261900-
...SOUTHWEST COLORADO...

CITY           SKY/WX    TMP DP  RH WIND       PRES   REMARKS
DURANGO        FAIR      78  41  26 SE6       30.32F
CORTEZ         FAIR      86  42  21 S9        30.25F
PAGOSA SPRINGS FAIR      75  36  24 SW5       30.40F
TELLURIDE      FAIR      75  20  12 W5G17     30.49S
WOLF CREEK PAS FAIR      55  36  47 SW7       30.74S
$$

COZ009-010-012-014-032>034-037-058>063-261900-
...CENTRAL COLORADO...

CITY           SKY/WX    TMP DP  RH WIND       PRES   REMARKS
ASPEN          FAIR      77  25  14 VRB5      30.36F
BUENA VISTA    FAIR      73  32  22 E5        30.38F
COPPER MTN     NOT AVBL
BERTHOUD PASS  FAIR      50  36  57 MISG      30.72S
COTTONWOOD PAS FAIR      72  37  28 NE3       30.53F
GUNNISON       FAIR      74  34  23 VRB5      30.38F
KREMMLING      NOT AVBL
LEADVILLE      FAIR      65  23  20 VRB3      30.51F
MONARCH PASS   FAIR      59  32  36 NW6       30.79F
SALIDA         FAIR      78  42  27 NE6       30.42F
SUNLIGHT       FAIR      63  28  27 CALM      30.63S
WILKERSON PASS FAIR      61  32  33 CALM      30.67S
$$

COZ069>075-261900-
...SAN LUIS VALLEY/SANGRE DE CRISTO MOUNTAINS...

CITY           SKY/WX    TMP DP  RH WIND       PRES   REMARKS
ALAMOSA        FAIR      71  48  43 VRB5      30.39F
DEL NORTE      FAIR      70  47  43 E7        30.42F
LA VETA PASS   FAIR      64  45  48 S7        30.68F
SAGUACHE       FAIR      72  43  35 SE9       30.41F
$$

COZ035-036-038>040-261900-
...NORTHERN COLORADO FRONT RANGE...

CITY           SKY/WX    TMP DP  RH WIND       PRES   REMARKS
DENVER INTL AP FAIR      79  48  33 CALM      30.24F
DMNS CITY PARK   N/A     78  50  37 N14       30.23F
AURORA         MOSUNNY   78  48  34 CALM      30.25F
FRONT RANGE AP FAIR      81  46  30 SE5       30.25F
ERIE MUNI ARPT FAIR      77  51  39 E3        30.23F
BOULDER MUN AP FAIR      77  48  36 SE6       30.24S
CENTENNIAL     FAIR      79  47  32 CALM      30.26F
BROOMFIELD     MOSUNNY   75  50  41 MISG      30.27S
FORT COLLINS   FAIR      79  50  36 VRB6      30.22F
LONGMONT       FAIR      80  52  36 CALM      30.24F
$$

COZ041-046-047-076>085-087-088-261900-
...PIKES PEAK/PALMER DIVIDE AND SOUTHERN FOOTHILLS...

CITY           SKY/WX    TMP DP  RH WIND       PRES   REMARKS
COLO. SPRINGS  FAIR      75  56  51 SE6       30.30F
A. F. ACADEMY  FAIR      75  53  44 S9        30.30F
SCHRIEVER AFB  FAIR      73  54  50 CALM      30.31F
CHEYENNE MTN   FAIR      73  53  48 SE7       30.30F
ELLICOTT       FAIR     N/A N/A N/A SW7       30.29F
FALCON           N/A     77  37  22 SW6G16    30.35F
FORT CARSON    SUNNY     77  55  47 E7        30.27F
LIMON          PTSUNNY   79  46  31 S9        30.23F
MONUMENT HILL  FAIR      73  32  21 CALM      30.36S
CANON CITY     SUNNY     84  55  37 E6        30.22F
WALSENBURG     FAIR      77  59  53 CALM      30.29F
TRINIDAD       FAIR      75  56  51 VRB5      30.29F
$$

COZ042>045-048>051-090-091-261900-
...NORTHEAST COLORADO...

CITY           SKY/WX    TMP DP  RH WIND       PRES   REMARKS
GREELEY ARPT   FAIR      81  58  45 VRB3      30.21F
AKRON          FAIR      80  52  37 S7        30.21F
BURLINGTON     FAIR      80  51  36 CALM      30.21F
WRAY           FAIR      81  55  41 CALM      30.19F
YUMA           FAIR      77  45  31 E5        30.20F
STERLING       FAIR      79  59  50 N3        30.18F
HOLYOKE        NOT AVBL
FORT MORGAN    FAIR      79  53  40 E5        30.21F
$$

COZ086-089-092>099-261900-
...SOUTHEAST COLORADO...

CITY           SKY/WX    TMP DP  RH WIND       PRES   REMARKS
PUEBLO         FAIR      79  58  48 SW3       30.21F
LA JUNTA       FAIR      80  59  48 VRB3      30.20F
LAMAR          FAIR      81  58  45 VRB3      30.17F
SPRINGFIELD      N/A     80  58  46 CALM      30.21F
$$




USA.gov is the U.S. government's official web portal to all federal, state and local government web resources and services.